sat.trackr.live / text

‹ back to catalog

STARLINK-4405

NORAD 53201 · 2022-084N

PAYLOAD ACTIVE UNKNOWN

§ Identity

Operator
Country
US
Launch date
2022-07-22
Launch site
AFWTR
Launch vehicle
Mass (kg)
RCS (m²)

Purposes: comms

External: N2YO · Heavens-Above · Gunter

§ Orbital elements

Epoch: 2026-09-20T04:00:03.000096Z

Period
93.18 min
Inclination
97.4970°
Eccentricity
0.0001524
Mean motion
15.45358173 rev/d
Perigee alt
429.3 km
Apogee alt
431.4 km
Semi-major
6,808.5 km
B*
2.4796e-2
RAAN
328.8473°
Arg perigee
87.5131°
Mean anomaly
85.4320°
Rev number
586

§ Raw data

STARLINK-44051 53201U 22084N   26263.16670139  .01312195  00000+0  24796-1 0  99992 53201  97.4970 328.8473 0001524  87.5131  85.4320 15.45358173  5864

JSON: /api/v1/satellites/53201 · /tle

For live sub-satellite position, see the globe view (requires WebGL).

§ Visibility from observer

Set your observer location to see the next 7 days of passes ≥ 10°. The values pass through the URL so the page stays shareable.

No JS? Fill the form by hand. The geolocation button needs JavaScript.